Regional Weather Roundup
Issued by NWS

Home | Current Version | Previous Version | Text Only | Print | Product List | Glossary Off
Versions: 1 2 3 4 5 6 7 8 9 10 11 12 13 14 15 16 17 18 19 20 21 22 23 24 25 26 27 28 29 30 31 32 33 34 35 36 37 38 39 40 41 42 43 44 45 46 47 48 49 50

000
ASUS43 KMKX 020159
RWRWI

WISCONSIN REGIONAL WEATHER ROUNDUP
NATIONAL WEATHER SERVICE MILWAUKEE/SULLIVAN WI
800 PM CST SUN FEB 01 2015

NOTE: "FAIR" INDICATES FEW OR NO CLOUDS BELOW 12,000 FEET WITH NO
SIGNIFICANT WEATHER AND/OR OBSTRUCTIONS TO VISIBILITY.

WIZ001-002-006>008-014>016-023>028-020300-
NORTHWEST WISCONSIN

CITY           SKY/WX    TMP DP  RH WIND       PRES   REMARKS
SUPERIOR ARPT  FAIR       4 -11  49 N9        30.31S WCI -11
ASHLAND        CLEAR      1  -4  79 NW5       30.27F WCI  -9
HAYWARD        CLEAR      4  -4  69 N5        30.21F WCI  -5
SIREN          CLEAR      5  -3  68 N5        30.26F WCI  -4
CUMBERLAND     CLEAR      7  -4  61 N12       30.20S WCI  -9
RICE LAKE      CLEAR      8  -1  66 NW6       30.22R WCI  -2
CHETEK         CLEAR      8  -1  69 MISG      30.20S
LADYSMITH      CLOUDY     9   3  76 N12       30.18R WCI  -5
EAU CLAIRE     PTCLDY    10   0  63 N10       30.18S WCI  -4
MENOMONIE      PTCLDY    11   1  63 N13       30.20S WCI  -4
NEW RICHMOND   CLEAR      8   0  68 N12       30.24R WCI  -7
OSCEOLA        CLEAR      9  -1  64 N8        30.28S WCI  -3
$$

WIZ003>005-009-010-017-018-020300-
NORTH CENTRAL WISCONSIN

CITY           SKY/WX    TMP DP  RH WIND       PRES   REMARKS
MANITOWISH WTR MOCLDY     4  -4  71 N7        30.13S WCI  -8
ARBOR VITAE    MOCLDY     4  -3  72 N3        30.12S
WOODRUFF       MOCLDY     4  -3  72 N3        30.12S
RHINELANDER    CLOUDY     5  -2  72 N7        30.10S WCI  -7
EAGLE RIVER    CLOUDY     5  -4  67 NE13G18   30.10F WCI -12
LAND O LAKES   CLOUDY     6  -2  70 NE6       30.12F WCI  -5
PHILLIPS       CLEAR      5  -3  69 N12G17    30.13S WCI -11
TOMAHAWK       MOCLDY     6  -2  68 CALM      30.12S
MEDFORD        MOCLDY     7  -2  65 N12       30.10S WCI  -8
MERRILL        MOCLDY     9  -1  63 NE10G17   30.11S WCI  -6
$$

WIZ029-030-035-036-043>047-020300-
CENTRAL WISCONSIN

CITY           SKY/WX    TMP DP  RH WIND       PRES   REMARKS
WAUSAU         CLOUDY     9  -1  64 N8        30.09S WCI  -3
MOSINEE        PTCLDY    10   0  61 N9G15     30.10  WCI  -2
MARSHFIELD     CLOUDY    11  -1  58 N13       30.10R WCI  -4
STEVENS POINT  CLOUDY    10  -1  63 N10G17    30.10S WCI  -4
WAUPACA        CLOUDY    14   2  58 N12       30.10S WCI   0
WAUTOMA        NOT AVBL
WISC RAPIDS    CLOUDY    12  -1  56 N13       30.11S WCI  -3
CAMP DOUGLAS   NOT AVBL
$$

WIZ011>013-019>022-031-037>040-048>050-020300-
NORTHEAST WISCONSIN

CITY           SKY/WX    TMP DP  RH WIND       PRES   REMARKS
ANTIGO         MOCLDY     6  -2  69 NE9       30.08S WCI  -8
SHAWANO        CLOUDY    13   3  65 NE14      30.12F WCI  -2
OCONTO         CLOUDY    10   1  67 N13G21    30.13F WCI  -5
STURGEON BAY   CLOUDY     9  -2  61 N18G26    30.11F WCI -10
GREEN BAY      CLOUDY    11   1  64 N16       30.11S WCI  -6
MANITOWOC      NOT AVBL
APPLETON       CLOUDY    10   0  61 NE18G28   30.08S WCI  -8
CLINTONVILLE   CLOUDY    12   1  62 NE13G26   30.11S WCI  -3
OSHKOSH        CLOUDY     9  -1  64 NE18G28   30.07S WCI -10
$$

WIZ032>034-041-042-053>061-020300-
SOUTHWEST WISCONSIN

CITY           SKY/WX    TMP DP  RH WIND       PRES   REMARKS
LA CROSSE      MOCLDY    15   0  51 N10G20    30.15R WCI   2
SPARTA         CLOUDY    13   2  60 N7        30.13R WCI   3
VIROQUA        MOCLDY    12   7  79 N15       30.06R WCI  -4
BOSCOBEL       LGT SNOW  14   7  73 N10       30.09S WCI   1
PRAIRIE DU CHI MIX PCPN  15   9  77 N8        30.09S WCI   3
PLATTEVILLE    CLOUDY    11   7  83 N24G30    30.00R WCI  -9
$$

WIZ056-057-062-063-064-067-068-020300-
SOUTH CENTRAL WISCONSIN

CITY           SKY/WX    TMP DP  RH WIND       PRES   REMARKS
REEDSBURG      LGT SNOW  10   6  82 N12       30.07S WCI  -4
BARABOO/DELLS  CLOUDY    10   5  81 N10G17    30.06S FOG     WCI  -4
LONE ROCK      NOT AVBL
MINERAL POINT  LGT SNOW  12   7  79 N21       29.99R WCI  -6
MADISON        LGT SNOW   8   3  80 N24G30    30.01S BLWGSNOWWCI -13
MIDDLETON      CLOUDY    10   4  75 N24G30    30.02S WCI -10
WATERTOWN      CLOUDY     8   4  84 N17G30    29.97F WCI -10
MONROE         LGT SNOW  10   7  85 N33       29.92S WCI -13
JANESVILLE     SNOW      10   7  85 N20G30    29.93R VSB 1/2 WCI  -8
$$

WIZ051-052-058>065-066-070>072-020300-
SOUTHEAST WISCONSIN

CITY           SKY/WX    TMP DP  RH WIND       PRES   REMARKS
MILWAUKEE      SNOW      18  14  84 N17G37    29.91S VSB 1/2 WCI   3
WAUKESHA       LGT SNOW  10   7  85 NE12G35   29.94R WCI  -4
MILWAUKEE/TIMM NOT AVBL
RACINE         LGT SNOW  19  15  84 NE26G39   29.90S VSB 3/4 WCI   1
BURLINGTON     CLOUDY    13  10  87 N17G24    29.90R WCI  -4
KENOSHA        FOG       19  16  88 NE22G32   29.87R VSB 1/4 WCI   2
FOND DU LAC    LGT SNOW   9   3  77 N25G31    30.05F WCI -12
SHEBOYGAN      LGT SNOW   9   4  80 N17G26    30.00S WCI  -9
WEST BEND      LGT SNOW  10   5  79 N14G26    29.97S WCI  -5
JUNEAU         LGT SNOW   7   2  82 N23G37    30.00S VSB 3/4 WCI -14
$$

LSZ147-162-020300-
LAKE SUPERIOR

STATION/POSITION TIME  TEMP    WIND        PRES    WAVE
                       AIR SEA DIR/SP/G            HT/PER
                 (UTC) (F)     (DEG/KT/KT) (MB)    (FT/S)
DEVILS ISLAND    0100   11     350/  8/ 14 1027.0F
PORT WING        0100   13     350/ 11/ 16 1025.7S
SAXON HARBOR     0100   13      10/ 14/ 19 1024.7R
$$

LMZ867-665-643>646-020300-
LAKE MICHIGAN

STATION/POSITION TIME  TEMP    WIND        PRES    WAVE
                       AIR SEA DIR/SP/G            HT/PER
                 (UTC) (F)     (DEG/KT/KT) (MB)    (FT/S)
NORTHPORT PIER   0100   10      10/ 18/ 21 1021.0S
SISTER BAY       0043    8      10/ 17/ 24   N/A
KEWAUNEE LAKESHO 0100    9     360/ 14/ 21 1017.9R
SHEBOYGAN LAKESH 0100   14     350/ 31/ 35 1017.2R
PORT WASHINGTON  0140   11     350/ 13/ 21 1015.9S
KENOSHA   LAKESH 0100   21      30/ 34/ 40 1010.8F
$$

TC  - TEMPERATURE IN CELSIUS
VSB - VISIBILITY IN STATUTE MILES
WCI - WIND CHILL INDEX
HX  - HEAT INDEX




USA.gov is the U.S. government's official web portal to all federal, state and local government web resources and services.